KCVH

Details ICAO KCVH
Name Hollister Muni
Region United States
Timezone America/Los_Angeles (UTC-7.0)
Plans Departing 4
Arriving 6
Stats Elevation 230 ft / 70 m (AMSL)
Location 36.892760° -121.409732°
Runways 2
Magnetic Variation 13.114° E
Sunrise 2018-05-24 12:52:57 UTC / 2018-05-24 05:52:57 Local
Sunset 2018-05-25 03:14:56 UTC / 2018-05-24 20:14:56 Local
Advertisement - Login to hide

Runways

ID Width Length Bearing (true) Bearing (mag) Surface Threshold Offset Overrun Length
06 98 ft / 30 m 3,153 ft / 961 m 71.79° 58.68° Asphalt 0 ft / 0 m 699 ft / 213 m
13 98 ft / 30 m 6,357 ft / 1,938 m 142.00° 128.89° Asphalt 0 ft / 0 m 0 ft / 0 m
24 98 ft / 30 m 3,153 ft / 961 m 251.80° 238.69° Asphalt 0 ft / 0 m 499 ft / 152 m
31 98 ft / 30 m 6,357 ft / 1,938 m 322.01° 308.90° Asphalt 0 ft / 0 m 0 ft / 0 m

Map

Weather


0- 5 10 15 20 25 30 35+ Temperature / ° C

Clouds and Precipitation
Forecast for 2018-05-24 12:00 UTC. Updated an hour ago

Ground ~20,000 ft ~40,000 ft Winds

METAR

KCVH 241035Z AUTO 25007KT 10SM OVC017 12/09 A3001 RMK A01

TAF

Not found

Frequencies

Unicom 123.00 MHz CTAF/UNICOM
Approach 124.52 MHz NORCAL APP/DEP
Warning: Do not use this data for real-world aviation or navigation. No guarantee of current accuracy is given.